Kulusuk, Greenland

9:30 AM WGT on February 12, 2016 (GMT -0300)
Kulusuk

Weather History for 04361 - March, 2014

Change the Weather History Date:

Tuesday, March 4, 2014

  Actual Average Record
Temperature  
Mean Temperature 28 °F -  
Max Temperature 32 °F 23 °F - ()
Min Temperature 26 °F 17 °F - ()
Degree Days  
Heating Degree Days 36    
Moisture  
Dew Point 24 °F    
Average Humidity 82    
Maximum Humidity 100    
Minimum Humidity 59    
Precipitation  
Precipitation 0.00 in - - ()
Sea Level Pressure  
Sea Level Pressure 28.95 in    
Wind  
Wind Speed 27 mph ()    
Max Wind Speed 79 mph    
Max Gust Speed 47 mph    
Visibility 2.3 miles    
Events Rain , Snow    
T = Trace of Precipitation, MM = Missing Value Source: Averaged Metar Reports

Daily Weather History Graph

Daily Weather History Graph

Search for Another Location

Airport or City:

Trip Planner

Search our weather history database for the weather conditions in past years. The results will help you decide how hot, cold, wet, or windy it might be!

Date:

Astronomy

Mar. 04, 2014 Rise Set
Actual Time 6:29 AM WGT 4:52 PM WGT
Civil Twilight 5:38 AM WGT 5:43 PM WGT
Nautical Twilight 4:40 AM WGT 6:41 PM WGT
Astronomical Twilight 3:39 AM WGT 7:43 PM WGT
Moon 6:39 AM WGT (3/4) 10:37 PM WGT (3/4)
Length of Visible Light 12h 04m
Length of Day
10h 23m
Waxing Crescent, 14% of the Moon is Illuminated
Mar 4
Waxing Crescent
Mar 8
First Quarter
Mar 16
Full
Mar 23
Last Quarter
Mar 30
New

Hourly Weather History & Observations

Time (WGT) Temp. Windchill Dew Point Humidity Pressure Visibility Wind Dir Wind Speed Gust Speed Precip Events Conditions
12:00 AM 29 °F - 26 °F 81% 29.06 in 0 mi Calm Calm - - Snow Heavy Snow
12:20 AM 28.4 °F - 26.6 °F 93% 29.03 in 0.1 mi North - - N/A Snow Heavy Snow
12:50 AM 26.6 °F - 26.6 °F 100% 29.03 in 0.1 mi North - - N/A Snow Heavy Snow
1:00 AM 27 °F - 26 °F 93% 29.06 in 0 mi Calm Calm - - Snow Heavy Snow
1:20 AM 26.6 °F - 24.8 °F 93% 29.06 in 0.1 mi North - - N/A Snow Heavy Snow
1:50 AM 26.6 °F - 24.8 °F 93% 29.06 in 0.1 mi North - - N/A Snow Heavy Snow
2:00 AM 27 °F - 25 °F 88% 29.08 in 0 mi East 79.4 mph - - Snow Heavy Snow
2:20 AM 26.6 °F - 24.8 °F 93% 29.06 in 0.3 mi North - - N/A Snow Snow
2:50 AM 26.6 °F - 24.8 °F 93% 29.09 in 0.4 mi North - - N/A Snow Snow
3:00 AM 27 °F - 24 °F 85% 29.09 in 0 mi ENE 47.2 mph - - Snow Light Snow
3:20 AM 26.6 °F - 24.8 °F 93% 29.09 in 0.4 mi North - - N/A Snow Light Snow
3:50 AM 26.6 °F 9.6 °F 24.8 °F 93% 29.09 in 0.8 mi ENE 33.4 mph 47.2 mph N/A Snow Light Snow
4:00 AM 27 °F - 24 °F 81% 29.12 in 0 mi ENE 33.4 mph - - Snow Light Snow
4:20 AM 26.6 °F 10.6 °F 24.8 °F 93% 29.09 in 1.1 mi ENE 28.8 mph 41.4 mph N/A Snow Light Snow
4:50 AM 26.6 °F 10.0 °F 24.8 °F 93% 29.09 in 0.9 mi ENE 31.1 mph 43.7 mph N/A Snow Light Snow
5:00 AM 27 °F - 24 °F 83% 29.11 in 0 mi ENE 32.2 mph - - Snow Snow
5:20 AM 26.6 °F 9.3 °F 24.8 °F 93% 29.09 in 0.2 mi East 34.5 mph 47.2 mph N/A Snow Heavy Snow
5:50 AM 26.6 °F 9.6 °F 24.8 °F 93% 29.09 in 0.3 mi East 33.4 mph 47.2 mph N/A Snow Snow
6:00 AM 27 °F - 24 °F 82% 29.10 in 0 mi East 35.7 mph - - Snow Snow
6:20 AM 26.6 °F 9.6 °F 24.8 °F 93% 29.09 in 0.3 mi East 33.4 mph 44.9 mph N/A Snow Heavy Snow
6:50 AM 26.6 °F - 24.8 °F 93% 29.06 in 0.2 mi North - - N/A Snow Heavy Snow
7:00 AM 27 °F - 24 °F 86% 29.08 in 0 mi East 34.5 mph - - Snow Heavy Snow
7:20 AM 26.6 °F 9.6 °F 24.8 °F 93% 29.06 in 0.3 mi East 33.4 mph 44.9 mph N/A Snow Snow
7:50 AM 26.6 °F 10.3 °F 24.8 °F 93% 29.03 in 0.8 mi East 29.9 mph - N/A Snow Light Snow
8:00 AM 28 °F - 25 °F 82% 29.06 in 1 mi East 26.5 mph - - Snow Light Snow
8:20 AM 28.4 °F 14.7 °F 24.8 °F 86% 29.03 in 1.7 mi East 21.9 mph - N/A Rain Light Freezing Rain
8:50 AM 28.4 °F 16.2 °F 24.8 °F 86% 29.03 in 3.1 mi ENE 17.3 mph - N/A Snow Light Snow
9:00 AM 28 °F - 25 °F 82% 29.05 in 2 mi ENE 15.0 mph - - Snow Light Snow
9:20 AM 28.4 °F 17.5 °F 24.8 °F 86% 29.03 in 3.1 mi ENE 13.8 mph - N/A Snow Light Snow
9:50 AM 28.4 °F 18.0 °F 26.6 °F 93% 29.00 in - ENE 12.7 mph - N/A Snow Light Snow
10:00 AM 28 °F - 26 °F 86% 29.03 in 1 mi ENE 10.4 mph - - Snow Light Snow
10:20 AM 28.4 °F 21.2 °F 26.6 °F 93% 29.00 in 1.1 mi NE 6.9 mph - N/A Snow Light Snow
10:50 AM 28.4 °F 23.3 °F 26.6 °F 93% 29.00 in 0.6 mi NNW 4.6 mph - N/A Snow Snow
11:00 AM 28 °F - 27 °F 93% 29.01 in 0 mi NNW 4.6 mph - - Snow Snow
11:50 AM 28.4 °F 22.2 °F 26.6 °F 93% 28.97 in 1.2 mi NE 5.8 mph - N/A Snow Light Snow
12:00 PM 28 °F - 26 °F 91% 28.99 in 1 mi ENE 17.3 mph - - Snow Light Snow
12:50 PM 30.2 °F 16.2 °F 24.8 °F 80% 28.94 in 1.6 mi East 25.3 mph - N/A Snow Light Snow
1:00 PM 30 °F - 24 °F 69% 28.96 in 1 mi ENE 26.5 mph - - Snow Light Snow
1:50 PM 28.4 °F 14.4 °F 23.0 °F 80% 28.91 in 6.2 mi ENE 23.0 mph 36.8 mph N/A Snow Light Snow
2:00 PM 29 °F - 23 °F 70% 28.94 in 2 mi ENE 26.5 mph - - Snow Light Snow
2:50 PM 28.4 °F 14.4 °F 23.0 °F 80% 28.91 in 6.2 mi ENE 23.0 mph - N/A Snow Light Snow
3:00 PM 29 °F - 22 °F 68% 28.93 in 2 mi ENE 21.9 mph - - Snow Light Snow Showers
3:50 PM 28.4 °F 13.8 °F 23.0 °F 80% 28.91 in 6.2 mi ENE 25.3 mph - N/A Snow Light Snow
4:00 PM 29 °F - 22 °F 66% 28.92 in 3 mi ENE 26.5 mph - - Snow Light Snow Showers
4:20 PM 28.4 °F 14.1 °F 23.0 °F 80% 28.88 in - ENE 24.2 mph 39.1 mph N/A Snow Light Snow
4:50 PM 28.4 °F 14.1 °F 23.0 °F 80% 28.88 in 2.5 mi ENE 24.2 mph - N/A Snow Light Snow
5:00 PM 28 °F - 22 °F 71% 28.90 in 2 mi ENE 23.0 mph - - Snow Light Snow
5:20 PM 28.4 °F 15.4 °F 23.0 °F 80% 28.85 in 6.2 mi ENE 19.6 mph 32.2 mph N/A Snow Light Snow
5:50 PM 28.4 °F 14.4 °F 21.2 °F 74% 28.85 in 6.2 mi ENE 23.0 mph - N/A   Mostly Cloudy
6:00 PM 29 °F - 20 °F 60% 28.87 in 3 mi ENE 20.7 mph - - Snow Light Snow Showers
6:20 PM 30.2 °F 18.1 °F 21.2 °F 69% 28.85 in 6.2 mi East 18.4 mph 29.9 mph N/A Snow Light Snow Showers
6:50 PM 30.2 °F 17.4 °F 23.0 °F 75% 28.82 in 6.2 mi ENE 20.7 mph - N/A Snow Light Snow Showers
7:00 PM 30 °F - 22 °F 61% 28.84 in 4 mi ENE 19.6 mph - - Snow Light Snow Showers
7:20 PM 30.2 °F 17.1 °F 23.0 °F 75% 28.80 in 6.2 mi ENE 21.9 mph - N/A Snow Light Snow Showers
7:50 PM 28.4 °F 14.7 °F 24.8 °F 86% 28.80 in 1.1 mi ENE 21.9 mph - N/A Snow Light Snow Showers
8:00 PM 29 °F - 24 °F 72% 28.81 in 1 mi ENE 21.9 mph - - Snow Light Snow Showers
8:20 PM 30.2 °F 18.9 °F 23.0 °F 75% 28.77 in 6.2 mi ENE 16.1 mph - N/A Snow Light Snow
8:50 PM 30.2 °F 18.1 °F 21.2 °F 69% 28.74 in 6.2 mi NE 18.4 mph 32.2 mph N/A Snow Light Snow
9:00 PM 30 °F - 21 °F 59% 28.76 in 3 mi ENE 19.6 mph - - Snow Light Snow
9:20 PM 30.2 °F 17.1 °F 24.8 °F 80% 28.74 in 3.7 mi ENE 21.9 mph - N/A Snow Light Snow
9:50 PM 30.2 °F 17.8 °F 24.8 °F 80% 28.71 in - ENE 19.6 mph - N/A Snow Light Snow
10:00 PM 30 °F - 24 °F 72% 28.73 in 3 mi ENE 19.6 mph - - Snow Light Snow
10:20 PM 30.2 °F 18.5 °F 24.8 °F 80% 28.71 in 6.2 mi ENE 17.3 mph 28.8 mph N/A Snow Light Snow
10:50 PM 30.2 °F 18.5 °F 24.8 °F 80% 28.68 in 6.2 mi East 17.3 mph - N/A Snow Light Snow
11:00 PM 31 °F - 22 °F 59% 28.69 in 3 mi ENE 18.4 mph - - Snow Light Snow
11:20 PM 30.2 °F 17.4 °F 23.0 °F 75% 28.65 in 6.2 mi ENE 20.7 mph - N/A Snow Light Snow
11:50 PM 32.0 °F 21.6 °F 23.0 °F 69% 28.65 in 6.2 mi ENE 15.0 mph 29.9 mph N/A Snow Light Snow